Location: St. Louis
(38.6270°N, 90.1994°W)
Time: 05:45:36
(UTC-06:00)

Courier 1B - Pass Details

Date: 04 December 2021
Orbit: 962 x 1209 km, 28.3° (Epoch: 19 January)

Event Time Altitude Azimuth Distance (km) Brightness Sun altitude
Rises 20:24:03 0° 262° (W) 3,899 11.4 -43.2°
Reaches altitude 10° 20:27:24 10° 249° (WSW) 2,896 10.5 -43.8°
Enters shadow 20:29:51 18° 233° (SW) 2,310 9.7 -44.3°
